User: anonymous   Login
Location: Unspecified
(0.0000°N, 0.0000°E)
Time: 10:35:08
(UTC+00:00)
Language:

ETS 8 - Orbit

View from above orbital plane
View from above orbital plane
View from above satellite
View from above satellite

Ground track
Ground track

The orbit data is extracted from the following two-line orbital elements,

1 29656U 06059A   14302.67199716  .00000000  00000-0  10000-3 0  5310
2 29656 003.7831 065.5743 0005163 153.2890 206.6979 01.00265968 28832
Epoch (UTC): 29 October 2014 16:07:40
Eccentricity: 0.0005163
inclination: 3.7831°
perigee height: 35766 km
apogee height: 35809 km
right ascension of ascending node: 65.5743°
argument of perigee: 153.2890°
revolutions per day: 1.00265968
mean anomaly at epoch: 206.6979°
orbit number at epoch: 2883

The dashed part of the orbit path shows where the satellite is in the earth's shadow,  

DLR